Wind_Speed
11 11 11 10 10 10 10 10 10 10 9 9 8 8 7 5 4 3 3 3 2 2 3 5 7 9 11 13 15 17 19 21 23 25 26 28 30 32 33 34 36 37 38 40
10 10 10 10 10 10 10 9 9 8 8 7 6 6 4 3 3 2 2 3 4 6 7 10 12 14 15 17 19 21 24 26 27 29 31 33 35 36 38 39 41 43 44 44
10 10 10 9 9 9 8 7 6 6 5 4 4 3 2 1 1 2 4 6 8 9 11 13 15 17 19 21 23 26 28 30 32 34 36 39 40 42 43 44 45 46 47 48
9 9 8 8 7 7 6 6 5 5 4 4 3 2 2 3 4 6 8 9 11 13 15 16 18 21 23 25 27 30 32 34 37 39 41 43 45 46 47 49 50 50 51 51
9 8 7 7 7 6 6 5 4 3 2 2 2 3 4 5 7 9 10 12 14 16 18 20 23 25 27 30 32 34 37 40 42 45 47 48 50 51 52 52 53 53 54 54
7 7 7 7 6 5 4 3 2 1 2 3 4 4 6 8 9 10 12 15 17 19 22 24 26 29 31 33 36 39 41 44 47 49 51 52 54 55 55 56 56 56 55 54
6 6 6 5 4 3 2 1 1 2 3 5 6 8 9 11 12 14 16 18 20 22 24 27 30 32 35 38 40 43 46 48 50 52 54 56 57 57 58 58 57 56 56 55
5 4 4 3 2 1 1 2 3 4 6 7 9 10 12 13 15 16 18 21 23 25 28 31 34 36 39 42 45 47 49 52 54 56 58 59 59 60 60 59 59 58 56 55
3 3 2 1 1 1 2 3 5 6 7 8 10 12 13 15 17 19 22 24 27 29 32 36 39 41 44 47 50 52 53 55 57 59 61 62 62 62 61 60 58 57 56 55
2 1 0 1 1 2 3 4 6 7 8 10 12 14 16 19 21 23 26 29 31 34 37 40 43 46 49 51 53 55 57 58 60 61 62 63 63 62 61 60 59 57 56 54
2 1 0 1 3 4 5 6 7 9 11 13 15 17 20 22 25 27 30 32 35 38 41 44 47 50 52 55 56 58 60 61 61 61 62 62 61 60 59 58 58 56 55 54
2 1 2 3 4 6 7 9 10 12 14 16 19 21 23 26 28 31 33 36 39 42 45 48 50 53 55 57 59 60 60 60 61 61 61 60 59 58 57 56 55 55 54 52
4 4 5 6 7 8 10 12 13 15 18 20 22 24 27 29 32 34 37 40 42 45 48 50 53 55 57 58 58 59 59 60 60 60 60 58 57 57 56 55 55 53 52 50
7 7 8 9 10 11 13 15 16 19 21 23 25 28 30 33 36 38 40 43 46 48 51 54 56 57 58 58 58 59 59 59 59 58 57 56 55 55 55 53 52 51 50 49
10 11 12 12 13 15 16 18 20 22 24 26 29 32 34 37 39 41 44 46 49 52 54 56 57 57 57 57 58 58 58 57 56 55 54 53 53 53 52 50 49 47 46 46
14 14 15 16 17 18 19 21 23 25 28 30 33 35 38 40 42 44 47 50 53 55 56 58 58 58 57 57 57 56 56 55 54 52 51 51 50 50 48 46 45 43 42 41
17 18 18 19 20 21 23 25 27 29 31 34 36 39 41 43 45 48 51 54 56 57 58 59 58 57 57 56 56 55 54 52 51 50 49 48 47 45 43 41 40 39 39 39
21 21 22 23 24 25 26 28 30 32 35 37 39 42 44 46 48 51 54 56 58 59 59 59 58 57 56 56 55 54 52 50 48 47 46 44 42 39 38 37 36 36 36 36
24 24 25 25 26 28 29 31 33 35 38 40 42 44 46 49 51 54 56 58 58 59 58 58 58 57 56 55 54 52 50 48 45 43 41 39 37 35 33 32 32 33 32 32
26 27 28 28 29 31 32 34 36 38 40 42 44 46 49 51 54 56 57 58 59 59 59 58 57 56 55 54 52 50 48 45 42 40 37 35 33 32 31 30 29 28 28 28
29 30 30 31 32 33 35 36 38 40 42 44 46 48 51 53 56 57 58 58 59 60 59 58 57 56 54 52 50 48 45 42 38 36 34 32 31 29 28 27 26 25 24 24
31 32 32 33 34 35 37 38 40 42 43 45 47 50 52 55 56 58 59 59 59 60 59 58 56 55 52 50 48 45 42 39 36 34 31 30 28 27 26 24 23 23 22 22
32 33 34 35 36 37 38 40 41 43 45 47 49 51 54 55 57 58 59 59 60 59 59 57 55 53 50 48 46 43 40 37 34 32 30 28 26 25 24 22 21 21 20 19
34 34 35 36 37 38 39 40 42 44 46 48 50 52 54 56 57 59 59 59 59 58 57 55 53 50 48 46 44 41 37 35 32 30 28 27 25 24 22 21 20 19 19 18
35 36 36 37 38 39 40 41 43 45 47 49 51 53 55 56 58 58 59 58 58 57 55 53 51 48 46 44 41 38 34 32 30 27 25 24 23 22 21 20 19 18 18 17
36 37 37 38 39 40 41 42 44 46 48 50 51 53 55 57 57 58 58 57 57 56 54 51 48 45 43 40 38 35 32 29 27 24 22 21 20 19 18 17 17 16 16 16
36 36 37 38 39 40 41 43 45 47 48 50 52 54 55 56 57 57 57 56 55 54 52 49 45 42 39 37 35 32 29 27 24 22 20 18 17 16 15 14 14 13 14 14
Wind_Direction
119 124 127 125 122 121 118 116 116 117 120 116 118 122 124 125 135 147 164 183 200 232 267 277 280 278 278 278 278 278 277 275 274 273 273 271 271 270 269 269 268 266 266 266
126 125 124 124 123 121 117 116 114 114 114 113 115 116 120 127 138 175 228 249 262 271 276 280 283 284 284 284 283 283 282 280 280 279 278 278 276 274 272 272 271 269 267 266
129 126 124 124 122 122 123 119 116 108 105 108 109 122 107 66 330 292 282 279 280 283 285 287 287 285 284 283 284 284 283 283 283 283 282 281 280 278 276 275 273 270 268 267
131 128 126 123 123 123 125 121 115 107 98 89 83 60 8 329 318 310 305 300 297 295 293 293 292 290 289 288 287 286 286 285 284 284 283 281 280 279 278 277 275 273 270 269
133 131 124 124 123 121 120 122 118 108 80 39 14 354 335 327 321 313 307 302 299 297 296 296 296 295 294 293 292 290 290 289 287 286 285 283 282 280 279 278 276 275 272 271
134 132 127 127 127 121 112 115 90 46 4 347 341 334 323 319 315 309 306 304 302 300 298 297 297 296 295 295 293 292 290 289 288 287 285 284 284 283 282 280 278 276 274 272
137 135 130 128 127 120 117 66 357 336 330 327 326 324 320 318 316 312 309 307 305 302 301 300 299 298 297 296 295 293 292 291 289 288 288 286 285 284 283 281 279 277 275 273
135 134 134 122 119 105 15 338 327 320 319 320 320 320 321 321 319 315 312 310 307 305 304 302 301 300 298 297 296 294 292 291 290 288 288 287 286 285 283 281 280 278 275 273
132 129 118 102 78 6 338 328 324 322 323 323 322 322 321 319 317 315 312 311 309 307 305 304 303 301 299 298 296 295 293 292 291 289 288 287 286 285 283 281 280 278 275 273
174 164 135 7 350 347 344 338 335 331 328 325 323 322 321 319 317 315 313 311 310 308 307 306 304 303 301 300 298 296 295 293 291 290 289 288 286 285 283 282 280 278 275 272
183 184 318 345 344 341 339 336 333 330 328 325 323 322 320 318 316 314 312 311 310 309 308 307 306 304 303 302 300 298 296 294 292 291 289 288 287 285 284 282 280 278 275 272
226 269 307 317 322 324 325 326 325 324 323 322 321 321 319 317 315 313 312 311 311 310 309 308 307 306 305 303 301 299 298 295 293 292 290 288 286 285 284 282 280 278 276 273
259 275 288 297 306 313 316 319 319 320 320 319 319 318 318 317 315 314 313 313 312 312 311 309 308 307 305 303 301 300 299 297 294 293 291 289 287 285 283 281 279 277 275 272
268 278 285 292 299 305 309 312 315 316 317 317 317 317 317 316 315 315 315 314 314 313 312 311 310 308 306 304 302 301 300 298 296 294 292 289 288 286 284 282 279 276 272 270
272 278 284 289 295 301 305 308 312 314 315 315 316 316 316 316 316 316 316 316 315 315 314 313 311 310 307 306 304 303 301 300 298 297 294 291 288 287 285 283 280 276 272 269
275 280 284 289 295 299 303 306 309 311 313 314 315 316 316 316 316 316 316 317 317 316 315 314 312 311 309 308 307 305 304 302 300 298 296 293 291 288 286 282 279 276 272 268
277 282 286 289 293 297 301 305 307 310 312 313 315 315 316 317 317 317 318 318 318 317 316 315 314 313 311 310 309 308 306 304 301 299 297 295 294 291 287 283 279 275 271 267
277 281 285 288 292 296 300 303 306 308 311 312 314 315 316 317 318 318 319 319 319 318 318 317 316 314 313 312 311 310 308 306 303 301 299 297 295 293 289 284 280 276 272 267
276 281 284 287 292 296 299 302 305 308 310 312 314 315 316 318 319 319 320 320 320 320 319 318 317 316 314 314 313 311 310 308 305 303 300 298 296 293 291 287 282 278 273 268
276 280 284 287 292 296 299 302 305 308 310 312 314 315 317 318 319 320 321 321 321 321 321 320 319 318 317 315 314 313 311 309 307 304 301 298 295 293 291 288 284 280 274 269
277 280 284 288 292 296 299 302 305 308 311 313 314 316 317 319 320 321 322 322 322 322 322 321 320 319 318 317 316 314 312 309 307 305 303 299 296 293 291 288 284 280 276 269
276 280 284 288 292 296 299 302 305 308 311 313 315 316 318 320 321 322 322 323 323 323 323 322 321 320 319 318 318 316 313 310 307 305 303 301 298 295 291 288 283 279 275 268
275 279 284 288 292 296 299 303 306 309 311 313 315 317 319 321 322 323 323 323 323 323 323 323 322 321 320 319 318 317 314 311 308 304 302 300 298 296 291 287 282 277 272 267
274 279 284 288 292 296 299 303 306 309 312 314 316 318 320 321 322 323 324 324 324 324 324 324 323 322 321 320 319 317 315 312 309 305 302 299 297 294 289 284 279 274 268 264
275 280 285 289 292 296 300 303 307 310 313 315 317 319 320 322 323 324 324 325 325 325 325 325 324 323 323 322 321 319 317 315 312 308 304 301 297 293 289 284 278 271 264 259
276 281 285 289 293 296 300 304 307 311 313 315 317 319 321 323 324 325 325 325 326 326 326 326 325 324 324 324 323 321 320 318 315 310 307 304 299 295 291 285 277 269 263 257
278 281 285 289 293 297 301 305 308 311 314 316 318 320 322 323 324 325 326 326 327 327 327 327 326 325 325 325 325 323 321 320 318 314 309 306 303 299 295 288 279 269 261 253
Height
5608 5609 5610 5612 5613 5614 5615 5617 5618 5619 5620 5621 5622 5624 5626 5627 5629 5630 5632 5634 5636 5638 5640 5641 5643 5644 5646 5647 5649 5650 5652 5653 5654 5656 5657 5657 5658 5659 5659 5660 5660 5661 5661 5662
5611 5612 5613 5615 5616 5617 5618 5620 5621 5622 5623 5624 5625 5626 5627 5628 5630 5631 5632 5633 5635 5636 5637 5638 5640 5641 5642 5643 5643 5644 5645 5646 5646 5647 5647 5647 5647 5647 5648 5648 5648 5648 5648 5648
5614 5615 5617 5618 5619 5620 5621 5622 5623 5624 5626 5626 5627 5627 5628 5629 5630 5630 5631 5632 5633 5634 5634 5635 5635 5636 5636 5637 5637 5637 5637 5637 5637 5636 5636 5635 5635 5634 5634 5633 5633 5633 5633 5633
5616 5619 5619 5622 5621 5622 5623 5624 5625 5626 5626 5627 5628 5628 5629 5629 5630 5630 5630 5630 5630 5630 5630 5630 5630 5630 5630 5629 5629 5628 5628 5627 5626 5625 5624 5622 5621 5620 5619 5618 5617 5616 5616 5616
5618 5619 5621 5622 5623 5623 5625 5626 5626 5627 5627 5628 5628 5629 5629 5629 5629 5629 5629 5628 5627 5627 5626 5625 5624 5623 5622 5620 5620 5618 5617 5616 5614 5612 5610 5608 5606 5604 5602 5601 5599 5598 5598 5597
5620 5621 5622 5625 5624 5624 5627 5627 5627 5627 5627 5628 5628 5629 5629 5628 5627 5627 5626 5625 5624 5622 5621 5620 5618 5616 5614 5612 5610 5608 5606 5604 5601 5598 5595 5592 5590 5587 5584 5582 5581 5579 5579 5578
5622 5623 5624 5625 5625 5626 5628 5629 5627 5627 5627 5627 5627 5627 5627 5626 5625 5624 5622 5621 5619 5617 5615 5613 5611 5608 5606 5603 5600 5597 5594 5590 5586 5583 5579 5576 5572 5569 5566 5563 5562 5560 5560 5559
5623 5624 5627 5625 5625 5626 5627 5626 5626 5626 5626 5626 5625 5624 5623 5622 5621 5620 5618 5616 5614 5612 5609 5606 5603 5600 5597 5593 5589 5584 5580 5576 5571 5567 5562 5558 5554 5550 5546 5544 5542 5540 5539 5539
5625 5627 5626 5625 5625 5626 5625 5625 5625 5625 5624 5624 5623 5622 5621 5619 5618 5615 5613 5611 5608 5604 5601 5597 5594 5590 5585 5580 5575 5569 5564 5559 5554 5549 5544 5539 5534 5530 5526 5523 5521 5520 5519 5519
5624 5625 5625 5625 5625 5625 5624 5624 5624 5623 5622 5621 5620 5619 5617 5615 5613 5610 5607 5603 5600 5596 5592 5587 5582 5577 5571 5565 5558 5553 5547 5541 5535 5530 5524 5519 5514 5509 5506 5503 5501 5499 5499 5499
5624 5624 5624 5624 5624 5624 5623 5622 5622 5621 5620 5618 5617 5615 5612 5610 5607 5603 5600 5596 5591 5587 5582 5576 5570 5563 5556 5549 5542 5535 5529 5522 5516 5510 5504 5499 5494 5490 5486 5483 5480 5479 5478 5478
5624 5624 5624 5623 5623 5622 5621 5620 5619 5618 5617 5615 5612 5610 5607 5604 5600 5596 5592 5587 5582 5576 5570 5563 5556 5548 5541 5533 5525 5518 5511 5503 5497 5490 5484 5479 5475 5471 5466 5463 5461 5459 5458 5458
5622 5622 5622 5621 5621 5620 5619 5617 5616 5614 5612 5610 5607 5604 5600 5597 5592 5587 5582 5577 5571 5564 5557 5549 5541 5533 5524 5516 5508 5500 5492 5485 5478 5471 5464 5459 5455 5451 5448 5446 5442 5440 5439 5439
5620 5619 5619 5618 5618 5616 5615 5613 5612 5609 5607 5604 5601 5597 5593 5588 5583 5578 5572 5565 5559 5551 5543 5534 5525 5516 5507 5498 5490 5482 5474 5466 5458 5452 5446 5440 5436 5431 5428 5426 5425 5423 5421 5421
5617 5616 5616 5615 5614 5612 5610 5608 5606 5604 5601 5597 5593 5589 5584 5579 5573 5567 5561 5553 5546 5537 5528 5519 5509 5500 5490 5481 5472 5464 5455 5447 5440 5433 5427 5422 5417 5413 5409 5406 5405 5404 5404 5404
5613 5612 5611 5610 5609 5607 5605 5603 5600 5597 5593 5590 5585 5580 5575 5569 5563 5556 5549 5541 5532 5523 5513 5503 5493 5483 5474 5464 5455 5446 5438 5430 5422 5416 5410 5404 5399 5395 5391 5389 5387 5387 5387 5387
5608 5607 5606 5605 5603 5601 5599 5596 5593 5589 5586 5581 5576 5571 5564 5558 5551 5544 5536 5527 5517 5507 5497 5487 5477 5467 5457 5448 5439 5430 5422 5414 5406 5400 5394 5388 5383 5379 5376 5373 5372 5371 5371 5371
5602 5601 5600 5598 5596 5594 5591 5588 5585 5581 5577 5572 5566 5560 5554 5547 5539 5531 5523 5513 5503 5492 5481 5471 5461 5451 5441 5432 5423 5415 5406 5399 5392 5385 5379 5374 5369 5365 5362 5360 5358 5357 5357 5358
5595 5594 5593 5591 5589 5586 5583 5580 5576 5572 5567 5562 5556 5549 5542 5535 5527 5518 5508 5498 5488 5478 5467 5456 5446 5436 5426 5417 5408 5400 5392 5385 5378 5372 5366 5361 5357 5353 5350 5348 5346 5345 5345 5345
5588 5587 5585 5583 5580 5578 5575 5571 5567 5562 5557 5551 5545 5538 5530 5522 5514 5504 5494 5484 5474 5464 5453 5443 5432 5422 5412 5403 5394 5386 5378 5371 5365 5359 5354 5350 5346 5343 5340 5338 5336 5335 5334 5334
5580 5578 5576 5574 5572 5569 5565 5561 5557 5552 5546 5540 5533 5526 5518 5510 5501 5491 5481 5471 5460 5449 5439 5428 5418 5408 5399 5390 5381 5373 5365 5359 5353 5348 5344 5340 5336 5333 5331 5328 5327 5326 5325 5325
5571 5569 5567 5565 5563 5559 5556 5551 5546 5541 5535 5529 5522 5514 5506 5497 5487 5477 5467 5457 5447 5436 5426 5415 5405 5395 5386 5377 5369 5361 5354 5348 5343 5338 5333 5330 5327 5324 5322 5320 5319 5318 5318 5318
5561 5560 5558 5556 5553 5549 5545 5541 5536 5530 5524 5517 5510 5502 5494 5484 5475 5465 5455 5444 5433 5423 5413 5402 5392 5383 5374 5365 5357 5350 5343 5337 5332 5328 5324 5321 5318 5316 5314 5313 5312 5311 5311 5311
5551 5550 5548 5546 5543 5539 5535 5530 5525 5519 5513 5506 5498 5490 5481 5472 5462 5452 5442 5431 5421 5410 5400 5390 5380 5371 5362 5354 5347 5340 5333 5328 5323 5319 5315 5312 5310 5308 5306 5305 5305 5304 5305 5305
5541 5540 5538 5535 5532 5529 5525 5520 5514 5508 5501 5494 5486 5478 5469 5460 5450 5440 5429 5419 5408 5398 5388 5378 5369 5360 5352 5344 5337 5330 5324 5319 5314 5310 5307 5305 5302 5301 5299 5298 5298 5298 5298 5299
5531 5530 5527 5525 5522 5518 5514 5509 5503 5497 5490 5482 5474 5466 5457 5447 5438 5428 5417 5407 5397 5387 5377 5368 5359 5350 5343 5335 5328 5322 5317 5311 5307 5303 5300 5298 5296 5294 5293 5292 5292 5292 5293 5294
5520 5519 5517 5514 5511 5507 5503 5498 5492 5485 5478 5471 5463 5454 5445 5436 5426 5416 5406 5396 5386 5377 5367 5358 5350 5342 5334 5328 5321 5315 5310 5305 5301 5297 5295 5293 5291 5289 5288 5287 5287 5287 5288 5289